TimeCST,TemperatureF,Dew PointF,Humidity,Sea Level PressureIn,VisibilityMPH,Wind Direction,Wind SpeedMPH,Gust SpeedMPH,PrecipitationIn,Events,Conditions,WindDirDegrees,DateUTC
12:53 AM,33.1,28.9,85,30.09,6.0,Calm,Calm,-,N/A,,Overcast,0,2013-02-07 06:53:00
1:53 AM,33.1,30.0,89,30.09,5.0,East,3.5,-,N/A,,Overcast,80,2013-02-07 07:53:00
2:53 AM,34.0,30.0,85,30.06,5.0,ESE,9.2,-,0.00,,Overcast,120,2013-02-07 08:53:00
3:53 AM,34.0,30.9,89,30.04,5.0,SSE,9.2,-,0.02,Rain,Light Rain,150,2013-02-07 09:53:00
4:53 AM,34.0,30.9,89,30.03,5.0,SE,9.2,-,0.01,Rain,Light Rain,140,2013-02-07 10:53:00
5:53 AM,34.0,30.0,85,30.04,4.0,SSE,8.1,-,0.01,Rain,Light Freezing Rain,160,2013-02-07 11:53:00
6:42 AM,33.8,30.2,87,29.99,4.0,SSE,10.4,-,0.01,Rain,Light Freezing Rain,160,2013-02-07 12:42:00
6:53 AM,33.1,30.9,92,30.02,3.0,SSE,10.4,-,0.02,Rain,Light Rain,160,2013-02-07 12:53:00
7:08 AM,33.8,30.2,87,29.99,3.0,SSE,6.9,-,0.00,Rain,Light Rain,150,2013-02-07 13:08:00
7:15 AM,33.8,30.2,87,29.99,2.0,SSE,8.1,-,0.00,Rain,Light Rain,150,2013-02-07 13:15:00
7:53 AM,33.1,30.9,92,30.02,2.0,SSE,5.8,-,0.00,Rain,Light Rain,150,2013-02-07 13:53:00
8:08 AM,33.8,30.2,87,30.00,1.5,SE,4.6,-,0.00,Rain,Light Rain,130,2013-02-07 14:08:00
8:53 AM,34.0,32.0,92,30.02,1.5,SE,8.1,-,0.02,Rain,Light Rain,140,2013-02-07 14:53:00
9:12 AM,33.8,32.0,93,29.99,1.5,SSE,5.8,-,0.02,Rain,Light Rain,150,2013-02-07 15:12:00
9:42 AM,33.8,32.0,93,30.00,1.5,SSE,5.8,-,0.04,Snow,Light Snow,160,2013-02-07 15:42:00
9:53 AM,34.0,32.0,92,30.02,1.0,SSE,6.9,-,0.05,Snow,Light Snow,160,2013-02-07 15:53:00
10:01 AM,33.8,32.0,93,29.99,0.5,SSE,5.8,-,0.00,Snow,Light Snow,160,2013-02-07 16:01:00
10:53 AM,33.1,32.0,96,30.02,0.5,Calm,Calm,-,0.06,Fog-Snow,Snow,0,2013-02-07 16:53:00
11:53 AM,34.0,32.0,92,30.00,0.5,NNE,3.5,-,0.05,Fog-Snow,Snow,20,2013-02-07 17:53:00
12:02 PM,33.8,32.0,93,29.97,0.5,NNE,3.5,-,0.01,Fog-Snow,Snow,30,2013-02-07 18:02:00
12:13 PM,33.8,32.0,93,29.96,0.5,NE,5.8,-,0.02,Fog-Snow,Snow,40,2013-02-07 18:13:00
12:45 PM,33.8,32.0,93,29.95,0.5,NE,5.8,-,0.04,Fog-Snow,Snow,40,2013-02-07 18:45:00
12:53 PM,34.0,32.0,92,29.97,0.5,NE,4.6,-,0.05,Fog-Snow,Snow,40,2013-02-07 18:53:00
1:14 PM,33.8,32.0,93,29.94,0.5,ENE,8.1,-,0.01,Fog-Snow,Light Snow,60,2013-02-07 19:14:00
1:22 PM,33.8,32.0,93,29.93,0.5,ENE,4.6,-,0.02,Fog-Snow,Light Snow,60,2013-02-07 19:22:00
1:41 PM,33.8,32.0,93,29.93,0.5,NE,6.9,-,0.03,Fog-Snow,Snow,50,2013-02-07 19:41:00
1:53 PM,33.1,32.0,96,29.96,0.5,NE,6.9,-,0.04,Fog-Snow,Snow,40,2013-02-07 19:53:00
2:53 PM,33.1,30.9,92,29.94,0.5,NNE,8.1,-,0.04,Fog-Snow,Snow,30,2013-02-07 20:53:00
3:53 PM,32.0,30.9,96,29.94,0.5,NNE,10.4,-,0.03,Fog-Snow,Snow,20,2013-02-07 21:53:00
4:18 PM,32.0,30.2,93,29.91,0.2,North,12.7,-,0.02,Fog-Snow,Snow,360,2013-02-07 22:18:00
4:29 PM,30.2,28.4,93,29.92,0.5,North,13.8,-,0.02,Fog-Snow,Light Snow,10,2013-02-07 22:29:00
4:53 PM,30.0,28.0,92,29.96,0.5,North,13.8,-,0.03,Snow,Light Snow,10,2013-02-07 22:53:00
5:10 PM,30.2,28.4,93,29.93,0.5,North,11.5,-,0.00,Fog-Snow,Light Snow,360,2013-02-07 23:10:00
5:34 PM,28.4,26.6,93,29.94,0.5,North,12.7,-,N/A,Fog-Snow,Snow,360,2013-02-07 23:34:00
5:42 PM,28.4,26.6,93,29.94,0.5,North,11.5,-,0.02,Fog-Snow,Snow,360,2013-02-07 23:42:00
5:53 PM,28.9,27.0,92,29.97,0.5,North,13.8,-,0.02,Fog-Snow,Snow,10,2013-02-07 23:53:00
6:23 PM,28.4,26.6,93,29.95,1.0,North,10.4,-,0.02,Snow,Light Snow,350,2013-02-08 00:23:00
6:53 PM,28.0,26.1,92,30.00,1.0,North,10.4,-,0.04,Snow,Light Snow,350,2013-02-08 00:53:00
7:53 PM,28.0,25.0,88,30.03,1.0,North,13.8,-,0.03,Snow,Light Snow,350,2013-02-08 01:53:00
8:53 PM,27.0,24.1,89,30.06,1.0,North,20.7,26.5,0.03,Snow,Light Snow,360,2013-02-08 02:53:00
9:22 PM,24.8,21.2,86,30.04,1.0,North,18.4,25.3,0.00,Snow,Light Snow,10,2013-02-08 03:22:00
9:53 PM,24.1,21.0,88,30.08,1.2,North,18.4,27.6,0.00,Snow,Light Snow,10,2013-02-08 03:53:00
10:17 PM,24.8,19.4,80,30.06,1.2,North,19.6,-,0.00,Snow,Light Snow,10,2013-02-08 04:17:00
10:41 PM,23.0,19.4,86,30.06,1.2,North,17.3,27.6,0.00,Snow,Light Snow,360,2013-02-08 04:41:00
10:53 PM,23.0,19.9,88,30.10,1.2,North,19.6,-,0.00,Snow,Light Snow,10,2013-02-08 04:53:00
11:35 PM,23.0,19.4,86,30.08,2.0,North,19.6,-,0.00,Snow,Light Snow,10,2013-02-08 05:35:00
11:49 PM,21.2,19.4,93,30.08,3.0,North,20.7,-,0.00,Snow,Light Snow,10,2013-02-08 05:49:00
11:53 PM,21.9,19.0,89,30.12,4.0,North,17.3,-,0.00,Snow,Light Snow,10,2013-02-08 05:53:00